Weather in Griboyedovo

Russia / Tula Oblast     53°34′09″N   38°51′47″E
temp.,
°C
wind,
m/s
gust,
m/s
humid.,
%
clouds,
%
prec.,
mm/h
press.,
hPa
HPBL,
m
16 april, fri
fri1600:00+10ssw118130 0.0 101416
03:00+9ese228594 0.0 101529
06:00+9ese228674 0.0 101619
09:00+13ese2365100 0.0 1016382
12:00+15e3456100 0.0 1016909
15:00+16se465499 0.3 10161159
18:00+15s466150 1.8 1016627
21:00+12sse33698 2.1 101734
17 april, sat
sat1700:00+10nw11705 0.0 101811
03:00+9sse227082 0.0 101911
06:00+9ene2278100 0.0 101822
09:00+10e4887100 1.0 1018306
12:00+10sse3586100 3.8 1018513
15:00+9ese3788100 8.8 1018410
18:00+8sse3692100 3.4 1019496
21:00+6s2292100 4.1 102041
18 april, sun
sun1800:00+5se22957 0.0 102035
03:00+5ese229610 0.0 102030
06:00+5ese249761 0.1 102099
09:00+7ese2387100 0.3 1020218
12:00+9ese237593 0.4 1020623
15:00+11ssw225933 0.7 10201144
18:00+11ssw226097 0.0 1020277
21:00+9nne1171100 0.1 102143
19 april, mon
mon1900:00+7e2390100 0.0 102177
03:00+6ene3496100 0.0 102293
06:00+5ene379827 0.0 1022165
09:00+9e5781100 0.0 1022588
12:00+12e6763100 0.1 10211386
15:00+12e6868100 0.6 10201043
18:00+12e81172100 1.0 1019884
21:00+9e81484100 2.6 1019750
20 april, tue
tue2000:00+8e91678100 0.9 1018705
03:00+7e91686100 1.3 1016776
06:00+7e101890100 3.1 1013729
09:00+7e112090100 3.9 1011914
12:00+7e132392100 4.6 1007987
15:00+7ese122392100 13.8 10051266
18:00+10se122392100 2.1 10031293
21:00+10se101793100 2.8 10031071